Home   Weather   Camagüey   Past weeks

Flag for Cuba Past Weather in Camagüey, Cuba — Yesterday and Last 2 Weeks

Now
68 °F

Clear.


Feels Like: 68 °F
Forecast: 67 / 82 °F
Wind: 10 mph from East

Location: Camaguey Aeropuerto

Current Time: Jan 17, 2017 at 12:05:10 am

Latest Report: Jan 16, 2017 at 10:50 pm


Visibility: 6 mi

Pressure: 30.15 "Hg

Humidity: 88%

Dew Point: 64 °F

Location of CamagüeyLocation

Past Weather in Camagüey — Graph

°F

Camagüey Temperature Yesterday

Maximum temperature yesterday: 81 °F (at 2:50 pm)
Minimum temperature yesterday: 66 °F (at 12:50 am)
Average temperature yesterday: 71 °F

High & Low Weather Summary for the Past Weeks

 TemperatureHumidityPressure
High90 °F (Jan 6, 2:50 pm)94% (Jan 2, 3:50 am)30.33 "Hg (Jan 2, 3:50 am)
Low63 °F (Jan 11, 5:50 am)31% (Jan 6, 12:50 pm)29.89 "Hg (Jan 4, 3:50 pm)
Average72 °F73%30.13 "Hg
* Reported Jan 1 10:50 pm — Jan 16 10:50 pm, Camagüey, Weather by CustomWeather, © 2017

Note: Actual official high and low records may vary slightly from our data, if they occured in-between our weather recording intervals... More about our weather records

Advertising

Camagüey Weather History for the Previous 24 Hours

Scroll right to see more
 ConditionsComfort  
Time TempWeatherWind HumidityBarometerVisibility
10:50 pm
Mon, Jan 16
68 °FClear.10 mph88%30.15 "Hg6 mi
9:50 pm68 °FPassing clouds.8 mph88%30.15 "Hg6 mi
8:50 pm70 °FPassing clouds.8 mph83%30.15 "Hg6 mi
7:50 pm70 °FPassing clouds.10 mph83%30.15 "Hg6 mi
6:50 pm72 °FPassing clouds.12 mph78%30.12 "Hg6 mi
5:50 pm73 °FPassing clouds.15 mph69%30.12 "Hg6 mi
4:50 pm77 °FScattered clouds.21 mph61%30.09 "Hg6 mi
3:50 pm81 °FScattered clouds.17 mph54%30.09 "Hg6 mi
2:50 pm81 °FScattered clouds.20 mph54%30.09 "Hg6 mi
1:50 pm79 °FPartly sunny.21 mph61%30.09 "Hg6 mi
12:50 pm79 °FPartly sunny.17 mph70%30.12 "Hg6 mi
11:50 am75 °FPartly sunny.14 mph78%30.15 "Hg6 mi
10:50 am73 °FPartly sunny.14 mph83%30.18 "Hg6 mi
9:50 am70 °FPartly sunny.14 mph94%30.18 "Hg6 mi
9:32 am68 °FHeavy rain. Partly sunny.18 mph94%30.18 "Hg1 mi
8:51 am68 °FPartly sunny.18 mph88%30.18 "Hg5 mi
8:38 am68 °FLight rain. Overcast.16 mph88%30.15 "Hg3 mi
7:50 am68 °FPartly sunny.10 mph94%30.15 "Hg6 mi
6:53 am68 °FPassing clouds.12 mph88%30.12 "Hg6 mi
5:50 am68 °FPassing clouds.13 mph88%30.09 "Hg6 mi
4:54 am68 °FPassing clouds.10 mph88%30.09 "Hg6 mi
3:50 am68 °FPassing clouds.10 mph88%30.09 "Hg6 mi
2:50 am68 °FClear.8 mph88%30.09 "Hg6 mi
1:50 am68 °FClear.9 mph88%30.09 "Hg6 mi
12:50 am66 °FPassing clouds.8 mph88%30.12 "Hg6 mi
Weather by CustomWeather, © 2017

See weather overviewHow to use our weather pages